Powrót do katalogu

INTELSAT 30

AktywnyŁącznośćGEO
NORAD 40271·PAYLOAD· XX

Wystrzelony Oct 16, 2014 z Guiana Space Centre

Loading…

TLE

ŚwieżeSource: CelesTrak SupGP

Epoka: Sep 14, 2026, 00:00 UTC

1 40271C 14062A   26257.00000000 -.00000061  00000+0  00000+0 0  2572
2 40271   0.0074  94.0029 0001675 321.6456 202.2955  1.00271945    12

Śledź INTELSAT 30 w czasie rzeczywistym z AllMySat

Download on the App Store